DELTA 1 DEB

Satellite information

Favourite Embed

Satellite Type and Status

DEBRISIN ORBIT

Key statistics

Satellite DELTA 1 DEB at a glance.

Uptime

17292

Days in orbit

Revolutions

≈ 14.1

Per day

Orbit

SSO

Sun Synchronous Orbit

Inclination

99.1

Latest

Satellite identification and parameters

Extended collection of information and parameters for DELTA 1 DEB.

Object identification

Identified? True

Debris? True

Object name: DELTA 1 DEB

International designator: 1978-026KK

Object number (NORAD): 37672

Object ID (CCSDS): 37672

Country: UNITED STATES OF AMERICA (US)

Current information (Y/N): Y

RCS size: SMALL

Orbital parameters

Period: 101.914 minutes

Inclination: 99.0648 deg

SMA: 7227.391 km

Apoapsis: 865.64 km

Periapsis: 832.871 km

RAAN: 208.7857 deg

Eccentricy: 0.002267

Argument of periapsis: 198.4084 deg

Mean anomaly: 161.6269 deg

Mean motion: 14.12961943 rev/day

Mean motion (dot): 0.00000222 rev/day2

B* drag term: 0.00014328 1/REarth

Two-line elements (TLE)

Creation date: July 5, 2025, 4:36 a.m.

Reference frame: TEME

Reference center: EARTH

Epoch: July 4, 2025, 7:43 p.m. UTC

TLE line 0: 0 DELTA 1 DEB

TLE line 1: 1 37672U 78026KK 25185.82178514 .00000222 00000-0 14328-3 0 9992

TLE line 2: 2 37672 99.0648 208.7857 0022670 198.4084 161.6269 14.12961943188436

Live tracking on map

Real-time ground track for satellite DELTA 1 DEB.

In-orbit conjunctions

A list of the most updated potential collisions computed for object DELTA 1 DEB.

Target Orbit TCA Probability of collision Miss distance Type
SL-16 R/B LEO 2025-02-15 20:35:32 0.0001747051 307.0 (m) ROCKET BODY
CZ-6A DEB SSO 2024-11-11 06:11:44 0.0001015658 659.0 (m) DEBRIS

Associated space launch

Earth observation satellite

DELTA 1 DEB was lifted into orbit during the mission ‘Delta 2910 | Landsat 3’, on board a Delta 2910 space rocket.

The launch took place on March 5, 1978, 5:54 p.m. from Space Launch Complex 2W.

For more information about the launch, click the button.

Launch to space Delta 2910 | Landsat 3
Delta 2910 | Landsat 3

Agency: N/A

Status: Launch Successful

Launch date: March 5, 1978, 5:54 p.m. UTC

Rocket: Delta 2910

Launch pad: Space Launch Complex 2W

Location: Vandenberg SFB, CA, USA

...

Latest news about this satellite

There are no fresh news available about this satellite. Check back as we update our databases every day.


Newsletter sign-up

Weekly statistics, charts and insights to help you stay on top of the space industry.